Location: B?dimalle
(17.1788°N, 80.5377°E)
Time: 08:53:57
(UTC+00:00)

Courier 1B Rocket - Pass Details

Date: 17 December 2025
Orbit: 920 x 1201 km, 28.2° (Epoch: 25 January)

Event Time Altitude Azimuth Distance (km) Brightness Sun altitude
Rises 16:00:50 0° 277° (W) 4,086 8.8 -53.6°
Reaches altitude 10° 16:03:55 10° 284° (WNW) 3,127 8.0 -54.3°
Enters shadow 16:03:57 10° 284° (WNW) 3,120 8.0 -54.3°
